| time (UTC) | temp C | wind direction | speed KPH | gust KPH | rain 1hr cm | rain 24hr cm | rain mn cm | humidity % | barometer mb |
| 20260905191010 | 26 | 334 | 3.2 | 19.3 | 0.00 | 0.00 | 0.00 | 33 | 1018.5 |
| 20260905190010 | 25 | 285 | 6.4 | 16.1 | 0.00 | 0.00 | 0.00 | 34 | 1018.5 |
| 20260905185013 | 25 | 190 | 3.2 | 16.1 | 0.00 | 0.00 | 0.00 | 33 | 1018.6 |
| 20260905184010 | 25 | 295 | 6.4 | 19.3 | 0.00 | 0.00 | 0.00 | 34 | 1018.6 |
| 20260905183009 | 25 | 291 | 1.6 | 12.9 | 0.00 | 0.00 | 0.00 | 34 | 1018.5 |
| 20260905182010 | 25 | 69 | 4.8 | 11.3 | 0.00 | 0.00 | 0.00 | 36 | 1018.5 |
| 20260905181010 | 25 | 246 | 1.6 | 11.3 | 0.00 | 0.00 | 0.00 | 38 | 1018.4 |
| 20260905175009 | 23 | 61 | 0.0 | 14.5 | 0.00 | 0.00 | 0.00 | 41 | 1018.2 |
| 20260905174010 | 22 | 3 | 6.4 | 20.9 | 0.00 | 0.00 | 0.00 | 40 | 1018.1 |
| 20260905173010 | 22 | 1 | 3.2 | 12.9 | 0.00 | 0.00 | 0.00 | 42 | 1018.1 |
| 20260905172009 | 21 | 307 | 1.6 | 9.7 | 0.00 | 0.00 | 0.00 | 43 | 1018.1 |
| 20260905171010 | 21 | 355 | 1.6 | 11.3 | 0.00 | 0.00 | 0.00 | 44 | 1018.1 |
| 20260905165010 | 20 | 17 | 3.2 | 11.3 | 0.00 | 0.00 | 0.00 | 46 | 1018.1 |
| 20260905163010 | 20 | 227 | 0.0 | 4.8 | 0.00 | 0.00 | 0.00 | 52 | 1017.8 |
| 20260905162010 | 19 | 227 | 0.0 | 0.0 | 0.00 | 0.00 | 0.00 | 56 | 1017.8 |
| 20260905161010 | 18 | 227 | 0.0 | 0.0 | 0.00 | 0.00 | 0.00 | 58 | 1017.7 |
| 20260905155009 | 16 | 227 | 0.0 | 0.0 | 0.00 | 0.00 | 0.00 | 65 | 1017.7 |
| 20260905154009 | 16 | 227 | 0.0 | 0.0 | 0.00 | 0.00 | 0.00 | 67 | 1017.7 |
| 20260905152009 | 15 | 227 | 0.0 | 0.0 | 0.00 | 0.00 | 0.00 | 69 | 1017.5 |
| 20260905151010 | 14 | 227 | 0.0 | 0.0 | 0.00 | 0.00 | 0.00 | 70 | 1017.4 |
| 20260905150010 | 14 | 227 | 0.0 | 0.0 | 0.00 | 0.00 | 0.00 | 71 | 1017.5 |
| 20260905145011 | 13 | 227 | 0.0 | 0.0 | 0.00 | 0.00 | 0.00 | 72 | 1017.4 |
| 20260905144009 | 13 | 227 | 0.0 | 0.0 | 0.00 | 0.00 | 0.00 | 75 | 1017.4 |
| 20260905143009 | 13 | 227 | 0.0 | 0.0 | 0.00 | 0.00 | 0.00 | 77 | 1017.4 |
| 20260905142010 | 12 | 227 | 0.0 | 0.0 | 0.00 | 0.00 | 0.00 | 77 | 1017.3 |
| 20260905141010 | 12 | 227 | 0.0 | 0.0 | 0.00 | 0.00 | 0.00 | 77 | 1017.3 |
| 20260905140009 | 12 | 227 | 0.0 | 0.0 | 0.00 | 0.00 | 0.00 | 76 | 1017.2 |
| 20260905135009 | 12 | 227 | 0.0 | 0.0 | 0.00 | 0.00 | 0.00 | 75 | 1017.1 |
| 20260905134010 | 12 | 227 | 0.0 | 0.0 | 0.00 | 0.00 | 0.00 | 73 | 1017.1 |
| 20260905133010 | 13 | 227 | 0.0 | 0.0 | 0.00 | 0.00 | 0.00 | 72 | 1016.9 |
| 20260905132009 | 13 | 227 | 0.0 | 0.0 | 0.00 | 0.00 | 0.00 | 72 | 1016.9 |
| 20260905131009 | 13 | 227 | 0.0 | 0.0 | 0.00 | 0.00 | 0.00 | 71 | 1016.8 |
| 20260905130010 | 13 | 227 | 0.0 | 0.0 | 0.00 | 0.00 | 0.00 | 70 | 1016.8 |
| 20260905125009 | 13 | 227 | 0.0 | 0.0 | 0.00 | 0.00 | 0.00 | 69 | 1016.9 |
| 20260905123009 | 13 | 227 | 0.0 | 0.0 | 0.00 | 0.00 | 0.00 | 69 | 1017.0 |
| 20260905122009 | 13 | 227 | 0.0 | 0.0 | 0.00 | 0.00 | 0.00 | 70 | 1016.9 |
| 20260905121010 | 13 | 227 | 0.0 | 0.0 | 0.00 | 0.00 | 0.00 | 70 | 1017.0 |
| 20260905120009 | 13 | 227 | 0.0 | 0.0 | 0.00 | 0.00 | 0.00 | 69 | 1017.1 |
| 20260905115009 | 13 | 227 | 0.0 | 0.0 | 0.00 | 0.00 | 0.00 | 70 | 1017.0 |
| 20260905113009 | 13 | 227 | 0.0 | 0.0 | 0.00 | 0.00 | 0.00 | 70 | 1017.1 |
| 20260905111010 | 13 | 227 | 0.0 | 0.0 | 0.00 | 0.00 | 0.00 | 68 | 1017.3 |
| 20260905110010 | 13 | 227 | 0.0 | 0.0 | 0.00 | 0.00 | 0.00 | 67 | 1017.3 |
| 20260905105010 | 13 | 227 | 0.0 | 0.0 | 0.00 | 0.00 | 0.00 | 67 | 1017.2 |
| 20260905104012 | 13 | 227 | 0.0 | 0.0 | 0.00 | 0.00 | 0.00 | 67 | 1017.2 |
| 20260905103010 | 13 | 227 | 0.0 | 0.0 | 0.00 | 0.00 | 0.00 | 67 | 1017.3 |
| 20260905102010 | 13 | 227 | 0.0 | 0.0 | 0.00 | 0.00 | 0.00 | 67 | 1017.4 |
| 20260905101010 | 13 | 227 | 0.0 | 0.0 | 0.00 | 0.00 | 0.00 | 67 | 1017.4 |
| 20260905100010 | 13 | 227 | 0.0 | 0.0 | 0.00 | 0.00 | 0.00 | 66 | 1017.4 |
| 20260905095010 | 13 | 227 | 0.0 | 0.0 | 0.00 | 0.00 | 0.00 | 66 | 1017.5 |
| 20260905094010 | 13 | 227 | 0.0 | 0.0 | 0.00 | 0.00 | 0.00 | 66 | 1017.5 |
| 20260905093010 | 13 | 227 | 0.0 | 0.0 | 0.00 | 0.00 | 0.00 | 66 | 1017.5 |
| 20260905092010 | 13 | 227 | 0.0 | 0.0 | 0.00 | 0.00 | 0.00 | 66 | 1017.7 |
| 20260905091010 | 13 | 227 | 0.0 | 0.0 | 0.00 | 0.00 | 0.00 | 67 | 1017.7 |
| 20260905090010 | 13 | 227 | 0.0 | 0.0 | 0.00 | 0.00 | 0.00 | 67 | 1017.8 |
| 20260905085010 | 13 | 227 | 0.0 | 0.0 | 0.00 | 0.00 | 0.00 | 66 | 1017.8 |
| 20260905084010 | 13 | 227 | 0.0 | 0.0 | 0.00 | 0.00 | 0.00 | 66 | 1017.9 |
| 20260905083010 | 13 | 227 | 0.0 | 0.0 | 0.00 | 0.00 | 0.00 | 65 | 1017.9 |
| 20260905082010 | 13 | 227 | 0.0 | 0.0 | 0.00 | 0.00 | 0.00 | 65 | 1017.9 |
| 20260905081009 | 14 | 227 | 0.0 | 0.0 | 0.00 | 0.00 | 0.00 | 65 | 1017.9 |
| 20260905080009 | 14 | 227 | 0.0 | 0.0 | 0.00 | 0.00 | 0.00 | 65 | 1018.0 |
| 20260905074010 | 13 | 227 | 0.0 | 0.0 | 0.00 | 0.00 | 0.00 | 65 | 1018.0 |
| 20260905073010 | 13 | 227 | 0.0 | 0.0 | 0.00 | 0.00 | 0.00 | 66 | 1017.9 |
| 20260905071009 | 13 | 227 | 0.0 | 0.0 | 0.00 | 0.00 | 0.00 | 67 | 1017.9 |
| 20260905065009 | 14 | 227 | 0.0 | 0.0 | 0.00 | 0.00 | 0.00 | 65 | 1017.8 |
| 20260905063009 | 14 | 227 | 0.0 | 0.0 | 0.00 | 0.00 | 0.00 | 64 | 1017.8 |
| 20260905062009 | 14 | 227 | 0.0 | 0.0 | 0.00 | 0.00 | 0.00 | 63 | 1017.9 |
| 20260905061010 | 15 | 227 | 0.0 | 0.0 | 0.00 | 0.00 | 0.00 | 61 | 1017.8 |
| 20260905060009 | 15 | 227 | 0.0 | 0.0 | 0.00 | 0.00 | 0.00 | 60 | 1017.9 |
| 20260905055010 | 15 | 227 | 0.0 | 0.0 | 0.00 | 0.00 | 0.00 | 59 | 1017.9 |
| 20260905054010 | 15 | 227 | 0.0 | 0.0 | 0.00 | 0.00 | 0.00 | 59 | 1017.9 |
| 20260905053009 | 15 | 227 | 0.0 | 0.0 | 0.00 | 0.00 | 0.00 | 58 | 1018.0 |
| 20260905052010 | 15 | 227 | 0.0 | 0.0 | 0.00 | 0.00 | 0.00 | 58 | 1018.1 |
| 20260905051010 | 15 | 227 | 0.0 | 0.0 | 0.00 | 0.00 | 0.00 | 58 | 1018.2 |
| 20260905045010 | 16 | 227 | 0.0 | 0.0 | 0.00 | 0.00 | 0.00 | 57 | 1018.2 |
| 20260905044010 | 16 | 227 | 0.0 | 0.0 | 0.00 | 0.00 | 0.00 | 57 | 1018.1 |
| 20260905042009 | 16 | 227 | 0.0 | 0.0 | 0.00 | 0.00 | 0.00 | 56 | 1018.0 |
| 20260905040010 | 16 | 227 | 0.0 | 0.0 | 0.00 | 0.00 | 0.00 | 53 | 1016.5 |
| 20260905035009 | 16 | 227 | 0.0 | 0.0 | 0.00 | 0.00 | 0.00 | 52 | 1017.8 |
| 20260905034010 | 16 | 227 | 0.0 | 0.0 | 0.00 | 0.00 | 0.00 | 50 | 1017.6 |
| 20260905033009 | 17 | 227 | 0.0 | 0.0 | 0.00 | 0.00 | 0.00 | 49 | 1017.4 |
| 20260905030010 | 18 | 227 | 0.0 | 0.0 | 0.00 | 0.00 | 0.00 | 46 | 1017.3 |
| 20260905025009 | 18 | 227 | 0.0 | 0.0 | 0.00 | 0.00 | 0.00 | 45 | 1017.3 |
| 20260905023009 | 19 | 227 | 0.0 | 0.0 | 0.00 | 0.00 | 0.00 | 43 | 1017.3 |
| 20260905022010 | 20 | 227 | 0.0 | 0.0 | 0.00 | 0.00 | 0.00 | 42 | 1017.3 |
| 20260905021010 | 20 | 227 | 0.0 | 0.0 | 0.00 | 0.00 | 0.00 | 42 | 1017.3 |
| 20260905020009 | 20 | 227 | 0.0 | 8.0 | 0.00 | 0.00 | 0.00 | 41 | 1017.2 |
| 20260905015010 | 20 | 357 | 0.0 | 0.0 | 0.00 | 0.00 | 0.00 | 40 | 1017.3 |
| 20260905014009 | 20 | 357 | 0.0 | 14.5 | 0.00 | 0.00 | 0.00 | 39 | 1017.3 |
| 20260905013009 | 21 | 319 | 0.0 | 9.7 | 0.00 | 0.00 | 0.00 | 38 | 1017.2 |
| 20260905012010 | 21 | 318 | 3.2 | 9.7 | 0.00 | 0.00 | 0.00 | 38 | 1017.2 |
| 20260905005009 | 22 | 24 | 1.6 | 11.3 | 0.00 | 0.00 | 0.00 | 34 | 1017.1 |
| 20260905004009 | 23 | 275 | 0.0 | 12.9 | 0.00 | 0.00 | 0.00 | 32 | 1017.2 |
| 20260905003010 | 23 | 282 | 1.6 | 12.9 | 0.00 | 0.00 | 0.00 | 30 | 1017.2 |
| 20260905002009 | 23 | 276 | 1.6 | 11.3 | 0.00 | 0.00 | 0.00 | 29 | 1017.2 |
| 20260905001009 | 23 | 224 | 1.6 | 12.9 | 0.00 | 0.00 | 0.00 | 28 | 1017.3 |
| 20260905000009 | 23 | 247 | 0.0 | 14.5 | 0.00 | 0.00 | 0.00 | 28 | 1017.3 |
| 20260904233010 | 24 | 272 | 3.2 | 14.5 | 0.00 | 0.00 | 0.00 | 28 | 1017.3 |
| 20260904231010 | 24 | 259 | 8.0 | 16.1 | 0.00 | 0.00 | 0.00 | 32 | 1017.2 |
| 20260904230010 | 23 | 288 | 4.8 | 12.9 | 0.00 | 0.00 | 0.00 | 33 | 1017.2 |
| 20260904225010 | 23 | 201 | 4.8 | 19.3 | 0.00 | 0.00 | 0.00 | 35 | 1017.2 |
| 20260904223010 | 23 | 356 | 1.6 | 14.5 | 0.00 | 0.00 | 0.00 | 36 | 1017.4 |
| 20260904222010 | 23 | 53 | 3.2 | 12.9 | 0.00 | 0.00 | 0.00 | 38 | 1016.0 |
| 20260904220010 | 24 | 257 | 4.8 | 11.3 | 0.00 | 0.00 | 0.00 | 37 | 1017.4 |
| 20260904215010 | 23 | 121 | 4.8 | 12.9 | 0.00 | 0.00 | 0.00 | 38 | 1017.4 |
| 20260904214010 | 23 | 278 | 4.8 | 19.3 | 0.00 | 0.00 | 0.00 | 38 | 1017.4 |
| 20260904213009 | 23 | 191 | 1.6 | 19.3 | 0.00 | 0.00 | 0.00 | 40 | 1017.4 |
| 20260904212009 | 22 | 171 | 1.6 | 16.1 | 0.00 | 0.00 | 0.00 | 41 | 1017.4 |
| 20260904205010 | 23 | 214 | 1.6 | 19.3 | 0.00 | 0.00 | 0.00 | 44 | 1017.4 |
| 20260904204010 | 22 | 299 | 4.8 | 14.5 | 0.00 | 0.00 | 0.00 | 45 | 1017.3 |
| 20260904202011 | 22 | 250 | 4.8 | 19.3 | 0.00 | 0.00 | 0.00 | 48 | 1017.3 |
| 20260904201010 | 21 | 198 | 0.0 | 19.3 | 0.00 | 0.00 | 0.00 | 51 | 1017.2 |
| 20260904200011 | 21 | 352 | 4.8 | 19.3 | 0.00 | 0.00 | 0.00 | 54 | 1017.2 |
| 20260904195009 | 20 | 263 | 6.4 | 14.5 | 0.00 | 0.00 | 0.00 | 59 | 1017.2 |
| 20260904194010 | 20 | 346 | 6.4 | 20.9 | 0.00 | 0.00 | 0.00 | 61 | 1017.2 |
| 20260904193010 | 20 | 350 | 4.8 | 16.1 | 0.00 | 0.00 | 0.00 | 63 | 1017.3 |
| 20260904192010 | 18 | 332 | 6.4 | 20.9 | 0.00 | 0.00 | 0.00 | 66 | 1017.4 |